29P/Schwassmann-Wachmann 1 (2004)

Japanese version
Home page
Total 6,336 html files since Dec. 4, 1995
Updated on June 14, 2008

---------------------------------------------------------------------

* Profile

* Pictures

* Orbital Elements

Epoch 2004 July 14.0 TT = JDT 2453200.5
T 2004 July 10.8283 TT                                  Nakano
q   5.723578             (2000.0)            P               Q
n   0.0672626      Peri.   48.9562      +0.9921460      -0.0356422
a   5.988072       Node   312.7156      -0.0284829      +0.8689890
e   0.044170       Incl.    9.3921      +0.1217995      +0.4935462
P  14.7
From 1941 observations 1902-2001, mean residual 0".9.

* Finding Charts

* Magnitudes Graph

        m1 = 4.0 + 5 log d + 7.5 log r

---------------------------------------------------------------------

The orbital elements are calculated by Syuichi Nakano and published at the MPC Ephemerides and Orbital Elements.
The charts are made with StellaNavigator Ver.2.0 for Windows (AstroArts / ASCII).
The magnitudes graphs are made with Comet for Windows.

---------------------------------------------------------------------

Copyright(C) 1995-2008 Seiichi Yoshida (comet@aerith.net). All rights reserved.